Regional Weather Roundup
Issued by NWS Grand Forks, ND

Home | Current Version | Previous Version | Graphics & Text | Print | Product List | Glossary On
Versions: 1 2 3 4 5 6 7 8 9 10 11 12 13 14 15 16 17 18 19 20 21 22 23 24 25 26 27 28 29 30 31 32 33 34 35 36 37 38 39 40 41 42 43 44 45 46 47 48 49 50
000
ASUS43 KFGF 272110
RWRFGF
PRAIRIE TO PINES  WEATHER ROUNDUP
NATIONAL WEATHER SERVICE EASTERN NORTH DAKOTA/GRAND FORKS ND
400 PM CDT TUE SEP 27 2016

 **SATELLITE DATA USED TO AUGMENT SKY COVER AT AUTOMATED STATIONS**
 *****  WEATHER ACROSS EASTERN NORTH DAKOTA  *****

CITY           SKY/WX    TMP DP  RH WIND       PRES   REMARKS
GRAND FORKS    MOSUNNY   59  44  57 N17G24    29.89S
GRAND FRKS AFB SUNNY     60  44  54 N15       29.89S
GRAND FRKS NWS   N/A     55 N/A N/A N14         N/A
DEVILS LAKE    SUNNY     64  33  31 N15       29.93R
FARGO          SUNNY     64  41  42 N14       29.87R
WAHPETON ARPT  CLEAR     64  32  29 N17G24    29.85F
$$

 ***** WEATHER ACROSS CENTRAL AND WESTERN NORTH DAKOTA  *****

CITY           SKY/WX    TMP DP  RH WIND       PRES   REMARKS
BISMARCK       SUNNY     73  43  33 NE8       29.93F
MINOT          SUNNY     71  39  31 VRB3      29.93F
JAMESTOWN      SUNNY     66  29  24 N14       29.90F
MINOT AFB      SUNNY     70  41  35 VRB2      29.92F
GARRISON         N/A     70  43  37 S6        29.93F
WILLISTON      SUNNY     78  50  37 VRB3      29.92S
DICKINSON      SUNNY     77  44  30 CALM      29.93F HAZE
HETTINGER      SUNNY     80  45  28 NW10      29.96F
$$

 *****  OTHER AIRPORT OBSERVATIONS IN OUR AREA  *****

CITY           SKY/WX    TMP DP  RH WIND       PRES   REMARKS
WALHALLA       FAIR      59  55  88 N16       29.92R
GRAFTON AIRPOR MOCLDY    59  46  63 N17       29.92S
VALLEY CITY AR FAIR      64  32  29 NW18      29.91S
CANDO            N/A     66  27  22 N12G22    29.95S
CAVALIER APRT  FAIR      59  45  58 N15G23    29.91S
GWINNER        FAIR      70  32  24 NW15G24   29.89S
SHEYENNE NWR     N/A     68  26  20 N13       29.95S
ROLLA          FAIR      64  27  24 N15       29.95S
 ***** THE ABOVE OBSERVATIONS ARE NON NWS ARE NOT QUALITY
       CONTROLLED AND MAY MIS-REPORT RAIN FOR SNOW...
$$

  *****  WEATHER ACROSS NORTHERN MINNESOTA  *****

CITY           SKY/WX    TMP DP  RH WIND       PRES   REMARKS
FLAG ISLAND    PTSUNNY   50  43  76 N16       29.86R
WARROAD        CLOUDY    52  43  71 N13G18    29.88R
ROSEAU         CLOUDY    50  43  76 N12       29.89R
HALLOCK        CLOUDY    55  45  67 N15       29.90R
THF RVR FALLS  CLOUDY    52  43  71 N20       29.89R
BAUDETTE       CLOUDY    50  44  80 N13       29.84R
WASKISH        CLOUDY    48  46  93 NW8       29.84R
CROOKSTON      CLOUDY    55  45  67 N20       29.89S
STEPHEN NDAWN    N/A     54  45  71 N14         N/A
GREENBUSH NDAW   N/A     52  46  82 N10         N/A
$$
  *****  WEATHER ACROSS CENTRAL AND WEST MINNESOTA  *****

CITY           SKY/WX    TMP DP  RH WIND       PRES   REMARKS
FOSSTON        CLOUDY    48  43  81 NW14      29.88R
BEMIDJI        DRIZZLE   46  45  96 N10       29.85R
PARK RAPIDS    LGT RAIN  49  43  80 NW12      29.84R
ELBOW LAKE     FAIR      61  38  43 NW18G29   29.85S
WADENA         CLOUDY    52  41  66 N12       29.84R
DETROIT LAKES  CLOUDY    54  43  66 N17G25    29.87S
MOORHEAD       SUNNY     63  41  45 N20G25    29.88R
FERGUS FALLS   CLOUDY    61  39  44 NW22G30   29.87S
MORRIS MN      CLOUDY    66  34  30 N21G26    29.83S
STAPLES        DRIZZLE   48  45  87 NW9       29.84R
$$
  *****  WEATHER ELSEWHERE ACROSS MINNESOTA  *****

CITY           SKY/WX    TMP DP  RH WIND       PRES   REMARKS
DULUTH         LGT RAIN  48  45  89 NW14G23   29.73R
INTRNTL FALLS  CLOUDY    52  45  77 NW10      29.80R
ELY            CLOUDY    46  45  93 NW7G17    29.74R
CLOQUET        LGT RAIN  48  45  87 NW9       29.75R
WHEATON        NOT AVBL
BRAINERD       LGT RAIN  49  46  90 NW10      29.82R FOG
HIBBING        CLOUDY    46  43  89 NW15G25   29.77R
ALEXANDRIA     MOSUNNY   58  41  53 NW13      29.84F
SAINT CLOUD    CLOUDY    54  43  66 NW12G18   29.81S
MINNEAPOLIS    CLOUDY    58  43  57 N10G20    29.78S
$$

  *****  WEATHER ACROSS SOUTH DAKOTA  *****

CITY           SKY/WX    TMP DP  RH WIND       PRES   REMARKS
SIOUX FALLS    MOSUNNY   75  43  31 NW18      29.87F
BROOKINGS      SUNNY     69  41  36 NW21      29.86F
WATERTOWN      SUNNY     69  35  28 NW16G26   29.87F
HURON          SUNNY     76  41  28 NW17G26   29.88S
SISSETON         N/A     70  28  21 N21G30    29.85S
ABERDEEN       SUNNY     74  38  27 NW18G25   29.89F
MITCHELL       SUNNY     79  41  25 N14G23    29.88F
PIERRE         SUNNY     80  42  25 N17G25    29.89F
MOBRIDGE       SUNNY     79  42  26 N10       29.89F
RAPID CITY     SUNNY     84  45  25 N16       29.99F
$$

  *****  SOME WEATHER IN NEARBY STATES *****

CITY           SKY/WX    TMP DP  RH WIND       PRES   REMARKS
GLASGOW MT     SUNNY     85  46  25 W12       29.90F
GREAT FALLS MT SUNNY     83  40  21 SW15      30.02R
CHEYENNE WY    SUNNY     78  20  11 N8G23     30.19F
SCOTTSBLUFF NE SUNNY     83  37  19 VRB5      30.07F
OMAHA NE       SUNNY     79  42  26 NW13      29.89F
DES MOINES IA  MOSUNNY   76  41  28 W20       29.83F
DAVENPORT IA   SUNNY     73  30  20 W16G28    29.78F
CHICAGO IL     PTSUNNY   68  35  29 W17G25    29.74S
EAU CLAIRE WI  LGT RAIN  50  47  89 W18       29.76R
LA CROSSE WI   CLOUDY    62  45  53 NW14      29.74S
$$

  *****  SOME NATIONAL WEATHER *****

CITY           SKY/WX    TMP DP  RH WIND       PRES   REMARKS
LA GUARDIA NY  PTSUNNY   76  50  40 SW8       29.87S
RALEIGH NC     PTSUNNY   78  69  73 S6        29.89F
ATLANTA GA     PTSUNNY   88  64  44 SW9       29.88F
NEW ORLEANS LA PTSUNNY   90  72  55 N9        29.90F HX  97
OKLAHOMA CITY  MOSUNNY   80  46  30 SW6       30.03F
ALBUQUERQUE NM CLOUDY    74  32  21 VRB5      30.22F
SALT LAKE CITY MOSUNNY   75  49  39 NW9       30.15F
LOS ANGELES CA PTSUNNY   94  42  16 SW12      29.82F HX  90
BOISE ID       SUNNY     82  44  26 CALM      30.05F
SEATTLE WA     MOSUNNY   67  45  45 N10       30.19F
$$

*** WEATHER ACROSS MANITOBA...SASKATCHEWAN AND ONTARIO ***
                ***ONTARIO***

CITY           SKY/WX    TMP DP  RH WIND       PRES   REMARKS
GERALDTON      PTSUNNY   54  48  82 NE12      29.67R
THUNDER BAY    PTSUNNY   57  50  77 N7        29.63R
SIOUX LOOKOUT  CLOUDY    50  46  87 N8        29.81R
TORONTO        MOSUNNY   70  37  30 SW17G28   29.73S
BIG TROUT LK   CLOUDY    54  52  94 NE5       29.90R
PICKLE LAKE    PTSUNNY   55  52  88 NE9G17    29.79R
DRYDEN         PTSUNNY   50  46  87 N7        29.82R
KENORA         DRIZZLE   48  43  81 N15G22    29.86R
$$
                *** MANITOBA***

CITY           SKY/WX    TMP DP  RH WIND       PRES   REMARKS
BRANDON        SUNNY     66  30  26 CALM      29.93F
DAUPHIN        SUNNY     63  39  42 NE6       29.95F
ISLAND LAKE    CLOUDY    46  45  93 NW8       29.97R
PILOT MOUND    NOT AVBL
THE PAS        MOSUNNY   59  34  38 CALM      29.95S
THOMPSON       CLOUDY    48  39  71 NE5       29.99S
WINNIPEG       PTSUNNY   54  45  71 NE14      29.93R
LYNN LAKE      MOSUNNY   45  39  81 SE10      29.96S
CHURCHILL      CLOUDY    43  43 100 NE9       30.03R
GILLAM         CLOUDY    46  43  87 NE7       29.98S
$$
                ***SASKATCHEWAN***

CITY           SKY/WX    TMP DP  RH WIND       PRES   REMARKS
ESTEVAN        MOSUNNY   73  45  35 SE8       29.92F
KINDERSLEY     NOT AVBL
LLOYDMINSTER   PTSUNNY   57  39  51 NW12G25   30.00R
PRINCE ALBERT  MOSUNNY   72  45  37 SE12G18   29.84S
REGINA         SUNNY     77  50  38 SE15      29.86F
YORKTON        SUNNY     68  39  34 SE6       29.92F
N. BATTLEFORD  SUNNY     68  45  42 NW23G30   29.90R
LA RONGE       MOSUNNY   68  45  42 SE8       29.83F
SASKATOON      MOSUNNY   75  50  41 SW5       29.85R
SWIFT CURRENT  SUNNY     81  45  28 W17       29.87R
$$
NOTE: THESE ARE AUTOMATED STATIONS WITH LIMITED QUALITY CONTROL
      "FAIR" INDICATES FEW OR NO CLOUDS BELOW 12,000 FEET WITH NO
      SIGNIFICANT WEATHER AND/OR OBSTRUCTIONS TO VISIBILITY.
      SKY/WX - SKY CONDITION AND SIGNIFICANT WEATHER.
      TMP - AIR TEMPERATURE.    DP   - DEWPOINT TEMPERATURE.
      RH  - RELATIVE HUMIDITY.  PRES - PRESSURE.
      HX  - HEAT INDEX.         WCI  - WIND CHILL INDEX.
$



USA.gov is the U.S. government's official web portal to all federal, state and local government web resources and services.